| time (UTC) | temp F | wind direction | speed MPH | gust MPH | rain 1hr in | rain 24hr in | rain mn in | humidity % | barometer mb |
| 20260506141540 | 59 | 183 | 2.0 | 9.0 | 0.00 | 0.00 | 0.00 | 85 | 1011.4 |
| 20260506140039 | 58 | 285 | 2.0 | 9.0 | 0.00 | 0.00 | 0.00 | 86 | 1011.3 |
| 20260506134536 | 58 | 225 | 1.0 | 10.0 | 0.00 | 0.00 | 0.00 | 86 | 1011.4 |
| 20260506133040 | 58 | 239 | 1.0 | 11.0 | 0.00 | 0.00 | 0.00 | 85 | 1011.3 |
| 20260506131536 | 58 | 259 | 1.0 | 5.0 | 0.00 | 0.00 | 0.00 | 85 | 1011.2 |
| 20260506130033 | 58 | 149 | 2.0 | 10.0 | 0.00 | 0.00 | 0.00 | 86 | 1011.4 |
| 20260506124534 | 58 | 250 | 2.0 | 7.0 | 0.00 | 0.00 | 0.00 | 86 | 1011.5 |
| 20260506123030 | 57 | 159 | 2.0 | 7.0 | 0.00 | 0.00 | 0.00 | 87 | 1011.4 |
| 20260506121529 | 57 | 254 | 3.0 | 8.0 | 0.00 | 0.00 | 0.00 | 88 | 1011.5 |
| 20260506120026 | 56 | 164 | 1.0 | 7.0 | 0.00 | 0.00 | 0.00 | 89 | 1011.4 |
| 20260506114537 | 56 | 154 | 2.0 | 8.0 | 0.00 | 0.00 | 0.00 | 89 | 1011.5 |
| 20260506113023 | 55 | 170 | 2.0 | 12.0 | 0.00 | 0.00 | 0.00 | 89 | 1011.5 |
| 20260506111522 | 55 | 191 | 1.0 | 7.0 | 0.00 | 0.00 | 0.00 | 90 | 1011.4 |
| 20260506110022 | 55 | 163 | 2.0 | 10.0 | 0.00 | 0.00 | 0.00 | 91 | 1011.4 |
| 20260506104523 | 54 | 178 | 1.0 | 5.0 | 0.00 | 0.00 | 0.00 | 91 | 1011.5 |
| 20260506103020 | 54 | 187 | 1.0 | 6.0 | 0.00 | 0.00 | 0.00 | 91 | 1011.5 |
| 20260506101535 | 54 | 205 | 1.0 | 7.0 | 0.00 | 0.00 | 0.00 | 91 | 1011.3 |
| 20260506100019 | 54 | 186 | 2.0 | 8.0 | 0.00 | 0.00 | 0.00 | 91 | 1011.3 |
| 20260506094519 | 54 | 260 | 1.0 | 8.0 | 0.00 | 0.00 | 0.00 | 91 | 1011.2 |
| 20260506093017 | 54 | 219 | 2.0 | 8.0 | 0.00 | 0.00 | 0.00 | 91 | 1011.4 |
| 20260506091520 | 54 | 240 | 1.0 | 8.0 | 0.00 | 0.00 | 0.00 | 91 | 1011.3 |
| 20260506090014 | 55 | 161 | 1.0 | 11.0 | 0.00 | 0.00 | 0.00 | 91 | 1011.4 |
| 20260506084518 | 55 | 156 | 1.0 | 7.0 | 0.00 | 0.00 | 0.00 | 91 | 1011.7 |
| 20260506083010 | 55 | 165 | 1.0 | 6.0 | 0.00 | 0.00 | 0.00 | 91 | 1011.9 |
| 20260506081510 | 55 | 185 | 2.0 | 6.0 | 0.00 | 0.00 | 0.00 | 90 | 1011.9 |
| 20260506073008 | 55 | 256 | 1.0 | 7.0 | 0.00 | 0.00 | 0.00 | 90 | 1011.9 |
| 20260506071513 | 55 | 217 | 1.0 | 9.0 | 0.00 | 0.00 | 0.00 | 90 | 1011.8 |
| 20260506061503 | 55 | 247 | 1.0 | 7.0 | 0.00 | 0.00 | 0.00 | 90 | 1012.0 |
| 20260506044601 | 55 | 206 | 1.0 | 8.0 | 0.00 | 0.00 | 0.00 | 89 | 1012.3 |
| 20260506043054 | 55 | 170 | 2.0 | 10.0 | 0.00 | 0.00 | 0.00 | 89 | 1012.3 |
| 20260506041603 | 55 | 198 | 2.0 | 11.0 | 0.00 | 0.00 | 0.00 | 89 | 1012.2 |
| 20260506040051 | 56 | 155 | 1.0 | 8.0 | 0.00 | 0.00 | 0.00 | 89 | 1012.2 |
| 20260506034553 | 56 | 311 | 2.0 | 8.0 | 0.00 | 0.00 | 0.00 | 88 | 1012.1 |
| 20260506033049 | 56 | 200 | 2.0 | 8.0 | 0.00 | 0.00 | 0.00 | 88 | 1012.3 |
| 20260506031552 | 56 | 311 | 1.0 | 11.0 | 0.00 | 0.00 | 0.00 | 87 | 1012.1 |
| 20260506030048 | 56 | 273 | 2.0 | 14.0 | 0.00 | 0.00 | 0.00 | 87 | 1012.1 |
| 20260506024548 | 56 | 197 | 2.0 | 10.0 | 0.00 | 0.00 | 0.00 | 87 | 1012.2 |
| 20260506023046 | 56 | 190 | 2.0 | 10.0 | 0.00 | 0.00 | 0.00 | 87 | 1012.2 |
| 20260506021551 | 56 | 159 | 3.0 | 9.0 | 0.00 | 0.00 | 0.00 | 86 | 1012.1 |
| 20260506020046 | 56 | 248 | 2.0 | 9.0 | 0.00 | 0.00 | 0.00 | 86 | 1012.0 |
| 20260506014552 | 56 | 247 | 2.0 | 7.0 | 0.00 | 0.00 | 0.00 | 86 | 1011.9 |
| 20260506013045 | 56 | 195 | 2.0 | 12.0 | 0.00 | 0.00 | 0.00 | 85 | 1011.8 |
| 20260506011545 | 56 | 229 | 2.0 | 8.0 | 0.00 | 0.00 | 0.00 | 85 | 1011.6 |
| 20260506010047 | 56 | 194 | 3.0 | 8.0 | 0.00 | 0.00 | 0.00 | 85 | 1011.4 |
| 20260506004546 | 56 | 194 | 2.0 | 10.0 | 0.00 | 0.00 | 0.00 | 84 | 1011.3 |
| 20260506003043 | 56 | 170 | 3.0 | 8.0 | 0.00 | 0.00 | 0.00 | 84 | 1011.1 |
| 20260506001605 | 56 | 169 | 3.0 | 9.0 | 0.00 | 0.00 | 0.00 | 84 | 1010.9 |
| 20260506000047 | 56 | 277 | 3.0 | 13.0 | 0.00 | 0.00 | 0.00 | 83 | 1010.6 |
| 20260505234549 | 57 | 217 | 3.0 | 10.0 | 0.00 | 0.00 | 0.00 | 83 | 1010.5 |
| 20260505233046 | 57 | 228 | 2.0 | 8.0 | 0.00 | 0.00 | 0.00 | 83 | 1010.3 |
| 20260505231549 | 57 | 170 | 2.0 | 9.0 | 0.00 | 0.00 | 0.00 | 83 | 1010.2 |
| 20260505230041 | 57 | 240 | 2.0 | 8.0 | 0.00 | 0.00 | 0.00 | 83 | 1010.2 |
| 20260505224542 | 57 | 136 | 2.0 | 8.0 | 0.00 | 0.00 | 0.00 | 83 | 1010.0 |
| 20260505223043 | 58 | 184 | 2.0 | 9.0 | 0.00 | 0.00 | 0.00 | 82 | 1009.9 |
| 20260505221544 | 58 | 228 | 2.0 | 12.0 | 0.00 | 0.00 | 0.00 | 82 | 1009.8 |
| 20260505220042 | 58 | 257 | 2.0 | 11.0 | 0.00 | 0.00 | 0.00 | 82 | 1009.8 |
| 20260505214555 | 58 | 245 | 2.0 | 10.0 | 0.00 | 0.00 | 0.00 | 81 | 1009.9 |
| 20260505213051 | 59 | 238 | 2.0 | 9.0 | 0.00 | 0.00 | 0.00 | 80 | 1009.8 |
| 20260505211537 | 59 | 264 | 2.0 | 12.0 | 0.00 | 0.00 | 0.00 | 80 | 1009.8 |
| 20260505210036 | 59 | 242 | 2.0 | 7.0 | 0.00 | 0.00 | 0.00 | 79 | 1009.7 |
| 20260505204538 | 60 | 167 | 1.0 | 7.0 | 0.00 | 0.00 | 0.00 | 78 | 1009.8 |
| 20260505203042 | 60 | 151 | 2.0 | 5.0 | 0.00 | 0.00 | 0.00 | 78 | 1009.8 |
| 20260505201546 | 60 | 172 | 2.0 | 12.0 | 0.00 | 0.00 | 0.00 | 79 | 1009.7 |
| 20260505200034 | 61 | 163 | 4.0 | 10.0 | 0.00 | 0.00 | 0.00 | 77 | 1009.9 |
| 20260505194533 | 62 | 186 | 2.0 | 12.0 | 0.00 | 0.00 | 0.00 | 77 | 1010.1 |
| 20260505193042 | 62 | 186 | 2.0 | 9.0 | 0.00 | 0.00 | 0.00 | 78 | 1010.4 |
| 20260505191527 | 62 | 250 | 1.0 | 8.0 | 0.00 | 0.00 | 0.00 | 78 | 1010.7 |
| 20260505190036 | 62 | 252 | 1.0 | 8.0 | 0.00 | 0.00 | 0.00 | 78 | 1011.0 |
| 20260505184526 | 61 | 256 | 2.0 | 9.0 | 0.00 | 0.00 | 0.00 | 79 | 1011.0 |
| 20260505183041 | 61 | 229 | 2.0 | 7.0 | 0.00 | 0.00 | 0.00 | 78 | 1011.3 |
| 20260505181523 | 61 | 167 | 2.0 | 9.0 | 0.00 | 0.00 | 0.00 | 79 | 1011.3 |
| 20260505180033 | 61 | 175 | 2.0 | 10.0 | 0.00 | 0.00 | 0.00 | 80 | 1011.3 |
| 20260505174529 | 61 | 175 | 3.0 | 15.0 | 0.00 | 0.00 | 0.00 | 79 | 1011.3 |
| 20260505173030 | 61 | 166 | 2.0 | 11.0 | 0.00 | 0.00 | 0.00 | 80 | 1011.4 |
| 20260505171528 | 60 | 176 | 1.0 | 8.0 | 0.00 | 0.00 | 0.00 | 81 | 1011.4 |
| 20260505170018 | 60 | 172 | 1.0 | 8.0 | 0.00 | 0.00 | 0.00 | 81 | 1011.4 |
| 20260505164531 | 60 | 169 | 1.0 | 8.0 | 0.00 | 0.00 | 0.00 | 81 | 1011.7 |
| 20260505163022 | 60 | 172 | 1.0 | 8.0 | 0.00 | 0.00 | 0.00 | 81 | 1011.7 |
| 20260505161516 | 60 | 166 | 2.0 | 9.0 | 0.00 | 0.00 | 0.00 | 81 | 1011.7 |
| 20260505153018 | 59 | 181 | 1.0 | 6.0 | 0.00 | 0.00 | 0.00 | 82 | 1012.2 |
| 20260505151511 | 59 | 198 | 3.0 | 7.0 | 0.00 | 0.00 | 0.00 | 83 | 1012.2 |